2023/08/10 00:00:00, 0.0,27.9
2023/08/10 00:10:00, 0.0,27.7
2023/08/10 00:20:00, 0.0,27.8
2023/08/10 00:30:00, 0.0,27.6
2023/08/10 00:40:00, 0.0,27.6
2023/08/10 00:50:00, 0.0,27.6
2023/08/10 01:00:00, 0.0,27.6
2023/08/10 01:10:00, 0.0,27.7
2023/08/10 01:20:00, 0.0,27.8
2023/08/10 01:30:00, 0.0,27.6
2023/08/10 01:40:00, 0.0,27.7
2023/08/10 01:50:00, 0.0,27.9
2023/08/10 02:00:00, 0.0,27.6
2023/08/10 02:10:00, 0.0,27.4
2023/08/10 02:20:00, 0.0,26.2
2023/08/10 02:30:00, 0.0,26.1
2023/08/10 02:40:00, 0.0,25.3
2023/08/10 02:50:00, 0.0,24.7
2023/08/10 03:00:00, 0.0,25.0
2023/08/10 03:10:00, 0.0,25.1
2023/08/10 03:20:00, 0.0,25.2
2023/08/10 03:30:00, 0.0,25.8
2023/08/10 03:40:00, 0.0,25.0
2023/08/10 03:50:00, 0.0,24.6
2023/08/10 04:00:00, 0.0,25.0
2023/08/10 04:10:00, 0.0,24.8
2023/08/10 04:20:00, 0.0,25.7
2023/08/10 04:30:00, 0.0,25.1
2023/08/10 04:40:00, 0.0,24.7
2023/08/10 04:50:00, 0.0,24.2
2023/08/10 05:00:00, 0.0,24.1
2023/08/10 05:10:00, 0.0,23.9
2023/08/10 05:20:00, 0.0,24.0
2023/08/10 05:30:00, 0.0,24.6
2023/08/10 05:40:00, 0.0,24.7
2023/08/10 05:50:00, 0.0,25.3
2023/08/10 06:00:00, 0.0,25.1
2023/08/10 06:10:00, 0.0,25.0
2023/08/10 06:20:00, 0.0,25.1
2023/08/10 06:30:00, 0.0,25.7
2023/08/10 06:40:00, 0.0,26.1
2023/08/10 06:50:00, 0.0,26.4
2023/08/10 07:00:00, 0.0,26.6
2023/08/10 07:10:00, 0.0,26.5
2023/08/10 07:20:00, 0.0,26.1
2023/08/10 07:30:00, 0.0,26.6
2023/08/10 07:40:00, 0.0,26.7
2023/08/10 07:50:00, 0.0,27.2
2023/08/10 08:00:00, 0.0,27.1
2023/08/10 08:10:00, 0.0,28.5
2023/08/10 08:20:00, 0.0,27.7
2023/08/10 08:30:00, 0.0,28.4
2023/08/10 08:40:00, 0.0,29.1
2023/08/10 08:50:00, 0.0,28.8
2023/08/10 09:00:00, 0.0,28.4
2023/08/10 09:10:00, 0.0,28.4
2023/08/10 09:20:00, 0.0,28.4
2023/08/10 09:30:00, 0.0,28.3
2023/08/10 09:40:00, 0.0,27.7
2023/08/10 09:50:00, 0.0,28.2
2023/08/10 10:00:00, 0.0,28.7
2023/08/10 10:10:00, 0.0,29.0
2023/08/10 10:20:00, 0.0,28.5
2023/08/10 10:30:00, 0.0,29.0
